Current weather by "City, St" or "zip code"  
 

Current Conditions: Pennridge Airport, PA

Fair


73.0 F

Last Updated on Oct 21 2021, 1:55 pm EDT
Humidity: 44%
Wind Speed: SW 10.4 G 17.3 mph
Barometer 29.97 in
Dewpoint: 50.0 F
Visibility: 10.00 mi
Precip: --
Heat Index: NA
Wind Chill: NA
Current conditions at:

Pennridge Airport, PA (KCKZ)

Lat: 40.38919 Lon: 75.29047

Local Radar Image active severe weather and emergency alerts image image weather storm and storm spotter reports image weather observation monitoring service image
Local
Radar
Active
Alerts
Storm Reports Obs
Monitoring

Sign-up For Email & Text Message Weather Alert Notification Services



Advertise Here

Observation History for Pennridge Airport, PA


Time Wind
(mph)
Vis
(mi)
Weather Precip (in) Temperature (F) Relative
Humidity
Wind
Chill
(F)
Heat
Index
(F)
Pressure
Air Dwpt altimeter
(in)
sea level
(mb)
Rmks
1:55 pm EDT SW 10.4 G 17.3 10.00 Fair -- 73.0 50.0 44% NA NA 29.97 M
12:55 pm EDT W 9.2 10.00 Fair -- 72.0 50.0 47% NA NA 30.00 M
11:55 am EDT SW 6.9 10.00 Fair -- 70.0 50.0 50% NA NA 30.03 M
10:55 am EDT S 4.6 10.00 Fair -- 66.0 50.0 56% NA NA 30.04 M
9:55 am EDT N 0.0 10.00 Fair -- 64.0 53.6 68% NA NA 30.06 M
8:55 am EDT SW 3.5 10.00 Fair -- 57.0 53.6 88% NA NA 30.06 M
7:55 am EDT N 0.0 4.00 Fog/Mist -- 48.0 48.2 100% NA NA 30.06 M
6:55 am EDT N 0.0 7.00 Fair -- 46.0 46.4 100% NA NA 30.07 M
5:55 am EDT N 0.0 10.00 A Few Clouds -- 48.0 48.2 100% NA NA 30.06 M
5:35 am EDT N 0.0 10.00 Mostly Cloudy -- 50.0 50.0 100% NA NA 30.06 M
4:55 am EDT SW 3.5 10.00 A Few Clouds -- 54.0 51.8 94% NA NA 30.06 M
3:55 am EDT N 0.0 10.00 Partly Cloudy -- 50.0 50.0 100% NA NA 30.06 M
3:35 am EDT N 0.0 10.00 Partly Cloudy -- 50.0 50.0 100% NA NA 30.06 M
2:55 am EDT N 0.0 10.00 Mostly Cloudy -- 52.0 51.8 100% NA NA 30.07 M
1:55 am EDT SW 3.5 10.00 Fair -- 54.0 50.0 88% NA NA 30.06 M
12:55 am EDT N 0.0 10.00 A Few Clouds -- 54.0 51.8 94% NA NA 30.05 M
11:55 pm EDT SW 4.6 10.00 Mostly Cloudy -- 59.0 50.0 72% 59 NA 30.06 M
10:55 pm EDT SW 3.5 10.00 Fair -- 59.0 50.0 72% NA NA 30.07 M
10:35 pm EDT SW 3.5 10.00 Fair -- 59.0 50.0 72% NA NA 30.07 M
9:55 pm EDT SW 4.6 10.00 Partly Cloudy -- 59.0 50.0 72% 59 NA 30.07 M
8:55 pm EDT N 0.0 10.00 Fair -- 55.0 53.6 94% NA NA 30.07 M
7:55 pm EDT SW 3.5 10.00 Fair -- 57.0 51.8 82% NA NA 30.07 M
6:55 pm EDT W 4.6 10.00 Fair -- 64.0 50.0 60% NA NA 30.06 M
5:55 pm EDT W 3.5 10.00 Fair -- 68.0 48.2 49% NA NA 30.05 M

Regional Weather Observation


Allentown Queen City Municipal Airport, PA (KXLL)

Fair
73.0 F

Quakertown Airport, PA (KUKT)

Fair
73.0 F

Lehighton Jake Arner Memorial Airport, PA (K22N)

Fair
72.0 F

Pennridge Airport, PA (KCKZ)

Fair
73.0 F

Pottstown, Pottstown Limerick Airport, PA (KPTW)

Fair with Haze
72.0 F

Doylestown, Doylestown Airport, PA (KDYL)

Fair
75.0 F

Advertise Here


Advertise Here